Location: *
(18.5200°S, 46.4500°E)
Time: 04:22:33
(UTC+00:00)

Cosmos 1703 - Pass Details

Date: 19 July 2019
Orbit: 524 x 542 km, 82.5° (Epoch: 20 August)

Event Time Altitude Azimuth Distance (km) Brightness Sun altitude
Rises 15:10:21 0° 175° (S) 2,716 6.6 -8.7°
Reaches altitude 10° 15:12:37 10° 167° (SSE) 1,819 5.7 -9.2°
Maximum altitude 15:16:24 40° 96° (E) 809 3.7 -10.0°
Drops below altitude 10° 15:20:08 10° 26° (NNE) 1,801 5.9 -10.9°
Sets 15:22:21 0° 18° (NNE) 2,685 6.8 -11.4°
